When you browse on this site, cookies collect data to enhance your experience and personalize the content and advertising you see.
Visit our Privacy Policy to learn more. By continuing to use the site, you agree to this use of cookies and data.
  • In United Kingdom
  • List of Countries
  • For 7 days
  • Water Temperature
  • Satellite Maps
  • Weather Map
  • Weather Widgets
  • user-avatar
    Login

    Hourly Weather Monteria

    Today, 18 April, Thursday

    Time Temperature Precipitation Wind Pressure Humidity
    00:00 +29°C° 1 mm 3 mps 755 mmHg 86%
    01:00 +29°C° 0 mm 3 mps 754 mmHg 87%
    02:00 +28°C° 2.2 mm 3 mps 754 mmHg 87%
    03:00 +28°C° 2.2 mm 3 mps 754 mmHg 88%
    04:00 +28°C° 2.2 mm 3 mps 754 mmHg 89%
    05:00 +28°C° 1.3 mm 2 mps 754 mmHg 87%
    06:00 +28°C° 1.3 mm 2 mps 754 mmHg 86%
    07:00 +29°C° 1.3 mm 2 mps 755 mmHg 84%
    08:00 +30°C° 0.2 mm 2 mps 755 mmHg 78%
    09:00 +31°C° 0.2 mm 2 mps 755 mmHg 72%
    10:00 +33°C° 0.2 mm 3 mps 755 mmHg 66%
    11:00 +34°C° 0.1 mm 3 mps 755 mmHg 63%
    12:00 +35°C° 0.1 mm 2 mps 754 mmHg 60%
    13:00 +36°C° 0.1 mm 2 mps 754 mmHg 57%
    14:00 +35°C° 0.6 mm 3 mps 753 mmHg 59%
    15:00 +35°C° 0.6 mm 3 mps 753 mmHg 62%
    16:00 +35°C° 0.6 mm 3 mps 752 mmHg 65%
    17:00 +33°C° 1.8 mm 3 mps 752 mmHg 71%
    18:00 +31°C° 1.8 mm 3 mps 753 mmHg 77%
    19:00 +30°C° 1.8 mm 3 mps 753 mmHg 83%
    20:00 +29°C° 0.3 mm 2 mps 754 mmHg 84%
    21:00 +29°C° 0.3 mm 2 mps 754 mmHg 85%
    22:00 +29°C° 0.3 mm 2 mps 755 mmHg 87%
    23:00 +29°C° 0.8 mm 2 mps 755 mmHg 87%

    Tomorrow, 19 April, Friday

    Time Temperature Precipitation Wind Pressure Humidity
    00:00 +29°C° 0.8 mm 2 mps 754 mmHg 88%
    01:00 +28°C° 0.8 mm 2 mps 754 mmHg 89%
    02:00 +28°C° 1.1 mm 2 mps 754 mmHg 89%
    03:00 +28°C° 1.1 mm 2 mps 754 mmHg 88%
    04:00 +28°C° 1.1 mm 2 mps 754 mmHg 88%
    05:00 +28°C° 0.3 mm 2 mps 754 mmHg 87%
    06:00 +28°C° 0.3 mm 2 mps 754 mmHg 87%
    07:00 +28°C° 0.3 mm 2 mps 755 mmHg 86%
    08:00 +30°C° 0.4 mm 2 mps 755 mmHg 80%
    09:00 +31°C° 0.4 mm 2 mps 755 mmHg 73%
    10:00 +34°C° 0.4 mm 2 mps 756 mmHg 67%
    11:00 +34°C° 1.5 mm 2 mps 755 mmHg 65%
    12:00 +35°C° 1.5 mm 2 mps 755 mmHg 63%
    13:00 +35°C° 1.5 mm 2 mps 754 mmHg 60%
    14:00 +35°C° 0.6 mm 2 mps 754 mmHg 61%
    15:00 +35°C° 0.6 mm 3 mps 753 mmHg 62%
    16:00 +35°C° 0.6 mm 3 mps 753 mmHg 63%
    17:00 +33°C° 0.3 mm 3 mps 753 mmHg 69%
    18:00 +31°C° 0.3 mm 3 mps 754 mmHg 74%
    19:00 +30°C° 0.3 mm 3 mps 754 mmHg 79%
    20:00 +30°C° 0 mm 3 mps 755 mmHg 81%
    21:00 +29°C° 0 mm 3 mps 755 mmHg 83%
    22:00 +29°C° 0 mm 3 mps 756 mmHg 84%
    23:00 +29°C° 0.3 mm 3 mps 756 mmHg 85%

    Day after tomorrow, 20 April, Saturday

    Time Temperature Precipitation Wind Pressure Humidity
    00:00 +29°C° 0.3 mm 3 mps 755 mmHg 87%
    01:00 +28°C° 0.3 mm 3 mps 755 mmHg 88%
    02:00 +28°C° 0.9 mm 2 mps 755 mmHg 88%
    03:00 +28°C° 0.9 mm 2 mps 755 mmHg 88%
    04:00 +28°C° 0.9 mm 2 mps 755 mmHg 88%
    05:00 +28°C° 0 mm 2 mps 755 mmHg 87%
    06:00 +28°C° 0 mm 2 mps 756 mmHg 86%
    07:00 +28°C° 0 mm 2 mps 756 mmHg 85%
    08:00 +30°C° 0 mm 2 mps 756 mmHg 78%
    09:00 +31°C° 0 mm 2 mps 757 mmHg 71%
    10:00 +32°C° 0 mm 2 mps 757 mmHg 64%
    11:00 +34°C° 0.3 mm 2 mps 756 mmHg 61%
    12:00 +35°C° 0.3 mm 2 mps 756 mmHg 58%
    13:00 +36°C° 0.3 mm 2 mps 755 mmHg 54%
    14:00 +35°C° 1.8 mm 2 mps 754 mmHg 58%
    15:00 +35°C° 1.8 mm 3 mps 754 mmHg 61%
    16:00 +34°C° 1.8 mm 3 mps 753 mmHg 64%
    17:00 +33°C° 0.1 mm 3 mps 754 mmHg 69%
    18:00 +31°C° 0.1 mm 3 mps 754 mmHg 75%
    19:00 +30°C° 0.1 mm 3 mps 755 mmHg 80%
    20:00 +29°C° 0.5 mm 3 mps 755 mmHg 81%
    21:00 +29°C° 0.5 mm 3 mps 756 mmHg 83%
    22:00 +29°C° 0.5 mm 2 mps 756 mmHg 84%
    23:00 +29°C° 0.1 mm 2 mps 756 mmHg 85%

    21 April, Sunday

    Time Temperature Precipitation Wind Pressure Humidity
    00:00 +28°C° 0.1 mm 2 mps 756 mmHg 86%
    01:00 +28°C° 0.1 mm 3 mps 756 mmHg 88%
    02:00 +28°C° 1.6 mm 3 mps 755 mmHg 87%
    03:00 +28°C° 1.6 mm 3 mps 755 mmHg 87%
    04:00 +28°C° 1.6 mm 3 mps 755 mmHg 87%
    05:00 +28°C° 0 mm 3 mps 755 mmHg 87%
    06:00 +28°C° 0 mm 3 mps 756 mmHg 87%
    07:00 +28°C° 0 mm 3 mps 756 mmHg 87%
    08:00 +29°C° 0.1 mm 3 mps 756 mmHg 82%
    09:00 +30°C° 0.1 mm 3 mps 757 mmHg 77%
    10:00 +31°C° 0.1 mm 3 mps 757 mmHg 72%
    11:00 +33°C° 0 mm 3 mps 756 mmHg 67%
    12:00 +34°C° 0 mm 2 mps 755 mmHg 63%
    13:00 +35°C° 0 mm 2 mps 755 mmHg 58%
    14:00 +35°C° 3.1 mm 3 mps 754 mmHg 61%
    15:00 +34°C° 3.1 mm 3 mps 754 mmHg 65%
    16:00 +34°C° 3.1 mm 3 mps 753 mmHg 69%
    17:00 +31°C° 4.2 mm 3 mps 754 mmHg 74%
    18:00 +30°C° 4.2 mm 3 mps 754 mmHg 80%
    19:00 +29°C° 4.2 mm 3 mps 755 mmHg 86%
    20:00 +29°C° 0.8 mm 2 mps 755 mmHg 86%
    21:00 +28°C° 0.8 mm 2 mps 756 mmHg 87%
    22:00 +28°C° 0.8 mm 2 mps 756 mmHg 88%
    23:00 +28°C° 0.3 mm 2 mps 756 mmHg 88%

    22 April, Monday

    Time Temperature Precipitation Wind Pressure Humidity
    00:00 +28°C° 0.3 mm 2 mps 755 mmHg 88%
    01:00 +28°C° 0.3 mm 2 mps 755 mmHg 89%
    02:00 +27°C° 0.1 mm 2 mps 755 mmHg 89%
    03:00 +27°C° 0.1 mm 2 mps 755 mmHg 90%
    04:00 +27°C° 0.1 mm 2 mps 754 mmHg 90%
    05:00 +27°C° 0 mm 3 mps 755 mmHg 89%
    06:00 +27°C° 0 mm 3 mps 755 mmHg 88%
    07:00 +27°C° 0 mm 4 mps 756 mmHg 87%
    08:00 +29°C° 0.2 mm 4 mps 756 mmHg 81%
    09:00 +30°C° 0.2 mm 4 mps 756 mmHg 75%
    10:00 +33°C° 0.2 mm 4 mps 756 mmHg 68%
    11:00 +34°C° 0.3 mm 4 mps 756 mmHg 65%
    12:00 +34°C° 0.3 mm 4 mps 755 mmHg 62%
    13:00 +35°C° 0.3 mm 5 mps 754 mmHg 58%
    14:00 +35°C° 0.8 mm 4 mps 754 mmHg 60%
    15:00 +35°C° 0.8 mm 4 mps 753 mmHg 62%
    16:00 +34°C° 0.8 mm 4 mps 753 mmHg 64%
    17:00 +33°C° 1.7 mm 4 mps 753 mmHg 71%
    18:00 +30°C° 1.7 mm 3 mps 754 mmHg 78%
    19:00 +29°C° 1.7 mm 2 mps 755 mmHg 84%
    20:00 +28°C° 0.5 mm 2 mps 755 mmHg 85%
    21:00 +28°C° 0.5 mm 2 mps 756 mmHg 86%
    22:00 +28°C° 0.5 mm 2 mps 756 mmHg 88%
    23:00 +28°C° 0 mm 3 mps 756 mmHg 88%

    23 April, Tuesday

    Time Temperature Precipitation Wind Pressure Humidity
    00:00 +27°C° 0 mm 3 mps 755 mmHg 89%
    01:00 +27°C° 0 mm 3 mps 755 mmHg 90%
    02:00 +27°C° 0 mm 3 mps 755 mmHg 90%
    03:00 +27°C° 0 mm 3 mps 755 mmHg 90%
    04:00 +26°C° 0 mm 3 mps 755 mmHg 90%
    05:00 +26°C° 0 mm 3 mps 755 mmHg 89%
    06:00 +27°C° 0 mm 3 mps 755 mmHg 88%
    07:00 +27°C° 0 mm 3 mps 756 mmHg 86%
    08:00 +29°C° 0 mm 3 mps 756 mmHg 80%
    09:00 +30°C° 0 mm 3 mps 756 mmHg 73%
    10:00 +33°C° 0 mm 3 mps 756 mmHg 66%
    11:00 +34°C° 0 mm 3 mps 755 mmHg 62%
    12:00 +35°C° 0 mm 3 mps 755 mmHg 59%
    13:00 +36°C° 0 mm 3 mps 754 mmHg 55%
    14:00 +35°C° 0.6 mm 3 mps 754 mmHg 58%
    15:00 +34°C° 0.6 mm 4 mps 753 mmHg 61%
    16:00 +34°C° 0.6 mm 4 mps 753 mmHg 64%
    17:00 +33°C° 1 mm 3 mps 754 mmHg 71%
    18:00 +30°C° 1 mm 3 mps 754 mmHg 77%
    19:00 +29°C° 1 mm 2 mps 755 mmHg 83%
    20:00 +29°C° 0.1 mm 2 mps 755 mmHg 85%
    21:00 +28°C° 0.1 mm 2 mps 756 mmHg 86%
    22:00 +28°C° 0.1 mm 1 mps 756 mmHg 88%
    23:00 +28°C° 0.1 mm 2 mps 756 mmHg 89%
    Show more